Wind_Speed
16 17 17 17 17 16 16 15 15 16 16 17 17 17 18 17 17 18 18 18 18 19 20 20 20 20 20 21 22 22 22 22 21 21 21 22 22 22
17 17 17 18 17 17 17 16 16 17 17 17 18 18 17 18 18 19 20 19 18 19 20 21 21 21 21 21 22 23 23 23 23 23 22 22 23 23
18 18 18 17 17 17 17 17 17 17 18 18 19 19 19 19 20 20 19 20 20 20 20 21 22 22 22 22 22 23 23 24 24 24 24 24 25 25
18 19 18 18 17 18 18 18 18 18 18 18 19 19 20 20 20 20 19 20 20 21 21 21 22 22 23 23 23 24 24 25 25 26 26 26 27 27
19 19 19 18 17 18 18 18 18 18 19 19 20 20 21 21 21 21 21 21 21 21 22 22 23 23 23 24 24 25 25 25 26 27 27 27 28 28
20 20 19 18 18 17 18 18 19 19 20 20 21 22 22 22 23 23 23 23 23 23 24 23 23 24 25 25 25 25 26 26 27 27 28 28 28 28
21 21 21 20 20 20 20 20 20 20 20 21 22 22 23 23 24 25 25 24 24 24 25 25 26 25 25 25 25 26 26 27 27 27 28 28 28 29
22 22 22 21 21 21 21 21 21 20 21 21 22 22 23 24 25 26 26 26 26 26 26 26 26 26 25 25 25 27 27 28 28 28 28 28 28 29
22 22 23 23 22 22 22 21 21 21 22 22 22 23 23 23 24 25 25 25 26 26 26 26 25 26 26 26 26 26 26 27 27 27 27 28 28 28
22 22 23 23 23 23 22 21 21 22 22 23 24 24 24 24 24 24 25 26 26 26 27 26 26 27 27 27 27 27 27 26 27 27 27 27 28 29
23 23 23 23 24 24 23 22 22 22 22 23 24 24 24 24 24 24 25 25 26 27 27 27 27 27 28 28 28 28 28 28 28 28 28 28 29 29
23 23 22 23 23 23 23 23 23 23 23 23 23 23 24 24 24 25 25 25 25 26 27 27 28 28 28 28 29 29 29 30 30 29 28 28 28 29
24 23 23 23 23 23 22 22 22 23 23 23 23 24 24 24 25 25 25 25 25 25 26 27 28 28 27 27 28 29 29 29 29 28 28 28 28 28
25 25 25 24 24 24 23 23 23 24 24 24 25 25 25 24 25 25 25 25 25 25 26 27 28 28 27 27 27 28 28 28 28 27 27 28 28 28
26 26 26 26 26 25 25 25 26 26 26 25 26 26 26 26 26 26 25 25 25 26 26 27 27 28 28 27 27 27 27 27 27 27 26 26 27 27
28 28 28 28 28 27 27 27 27 27 27 27 27 27 26 26 26 26 25 25 25 25 26 26 25 25 25 25 26 26 26 26 26 26 26 25 25 25
30 30 30 29 29 28 28 28 28 29 28 28 27 27 26 26 26 26 26 25 25 25 25 25 25 25 25 25 24 24 25 25 25 25 25 24 23 24
31 30 30 30 30 30 29 29 29 29 29 28 28 28 27 26 26 26 26 25 25 25 25 26 26 25 25 24 24 24 24 23 23 23 23 23 23 24
30 30 29 30 30 29 29 29 29 29 29 29 28 28 27 26 26 26 26 26 26 26 26 26 25 25 24 23 22 22 22 22 23 23 22 22 22 22
30 30 29 29 29 29 29 29 29 29 29 28 28 27 27 27 27 26 26 27 27 26 26 26 25 25 24 23 22 22 22 22 22 22 22 22 21 20
30 29 28 28 27 27 27 27 27 28 27 27 27 27 26 26 26 26 25 26 26 26 25 24 24 23 23 22 22 22 22 21 21 21 22 22 21 20
29 28 28 27 27 26 26 26 26 26 26 25 26 26 26 25 24 24 24 24 24 24 23 22 22 22 21 21 21 21 21 21 20 20 21 21 21 20
28 28 28 28 27 27 27 27 27 26 26 26 26 26 25 25 24 23 24 23 23 22 22 21 20 20 20 20 20 20 20 20 20 20 21 21 22 21
Wind_Direction
305 302 298 293 289 290 292 290 286 285 283 278 276 274 273 272 273 271 271 272 267 267 267 268 268 268 268 267 266 266 265 264 264 264 262 261 262 262
305 303 298 293 287 286 287 288 287 285 282 280 279 278 276 274 274 275 273 271 270 271 270 270 269 269 269 269 266 265 266 266 265 264 262 262 263 261
307 306 301 294 288 285 285 286 286 285 281 280 279 278 277 275 274 275 274 272 272 273 272 269 269 269 269 270 268 267 266 265 265 266 265 264 264 262
306 306 305 298 291 285 284 285 285 284 281 280 280 278 277 277 276 275 274 273 274 275 275 272 271 270 269 269 268 268 267 266 265 266 267 267 265 265
304 305 304 301 295 291 287 284 284 284 282 280 280 279 279 278 277 276 275 275 276 276 276 276 272 271 270 269 269 269 269 268 267 267 268 267 267 266
302 303 303 301 299 295 293 289 286 285 285 284 280 279 280 278 277 277 276 277 276 277 276 274 273 269 268 268 268 268 269 269 269 268 268 267 267 266
301 301 300 298 296 294 293 291 290 289 287 286 284 279 279 278 277 276 275 276 276 275 274 273 273 270 267 267 268 268 270 269 269 269 268 269 268 267
298 298 297 296 295 294 292 290 290 289 289 288 286 284 281 278 277 277 276 275 275 274 274 274 272 270 268 266 266 269 269 269 269 268 268 268 268 268
297 296 295 295 295 293 292 291 290 291 290 289 288 285 283 280 278 277 276 276 275 273 273 272 270 268 269 268 267 268 268 267 268 269 270 269 268 267
294 294 295 296 296 292 290 288 289 290 291 290 289 286 282 280 278 277 277 278 276 274 273 272 272 272 272 271 271 269 267 266 266 269 271 271 270 269
292 291 292 294 294 291 290 289 288 288 289 290 290 287 285 284 283 282 280 279 278 276 274 273 271 271 271 272 271 269 267 267 268 268 268 268 270 269
292 290 290 292 294 291 290 288 287 287 287 289 290 288 287 286 285 284 283 281 278 275 273 271 270 270 270 270 271 271 270 270 272 271 270 269 270 270
291 290 289 290 291 291 289 288 287 287 287 289 290 289 288 287 285 284 284 282 278 277 275 273 272 271 270 270 271 273 273 273 273 273 271 270 270 270
288 288 288 289 290 290 289 288 287 287 287 289 291 290 288 287 285 284 283 282 280 279 278 277 275 273 272 272 272 273 274 274 273 271 270 269 269 271
286 287 287 287 287 286 287 287 287 287 288 288 289 289 288 287 286 284 284 284 282 281 280 279 278 274 273 273 272 273 273 272 272 272 270 269 271 272
285 286 286 286 286 285 285 286 287 287 287 288 288 288 287 287 285 285 284 284 282 282 281 280 279 277 274 273 272 272 273 273 272 271 270 270 271 272
282 283 283 283 283 284 285 285 286 286 287 288 288 287 286 285 286 285 284 282 282 282 280 279 279 278 275 272 272 272 272 272 271 271 269 269 273 274
281 283 283 283 283 284 284 285 286 285 286 286 286 286 285 284 285 285 284 282 282 282 280 278 278 276 274 272 272 271 271 270 270 270 270 270 272 274
282 282 283 283 283 283 283 284 284 284 284 285 285 284 283 283 283 283 282 283 282 282 281 279 277 276 273 271 271 270 269 268 268 268 268 270 272 274
281 281 282 283 283 282 281 282 282 282 283 284 285 284 284 284 284 283 282 282 282 282 281 280 277 275 273 269 268 268 268 268 267 266 269 272 273 272
280 281 281 282 282 282 282 283 283 284 283 283 283 283 283 283 283 283 282 282 282 281 280 279 276 273 270 268 266 267 268 268 266 266 268 271 273 273
279 279 279 280 281 281 283 284 284 284 283 282 280 281 281 282 284 283 283 282 282 281 279 277 276 271 269 268 266 266 266 268 269 269 268 270 273 271
278 279 278 278 279 279 281 283 284 283 282 281 279 280 280 280 281 283 283 282 282 280 277 275 273 270 268 269 268 266 267 268 270 270 270 271 271 269
Height
5851 5849 5847 5846 5844 5843 5842 5840 5840 5838 5837 5836 5835 5835 5834 5833 5833 5832 5832 5832 5832 5832 5832 5832 5832 5832 5832 5832 5832 5832 5832 5832 5832 5832 5832 5832 5832 5832
5846 5844 5842 5840 5839 5838 5837 5836 5835 5834 5832 5831 5830 5829 5829 5828 5828 5827 5827 5827 5826 5826 5826 5826 5826 5825 5825 5825 5825 5825 5825 5825 5825 5825 5825 5825 5825 5825
5841 5839 5837 5835 5834 5832 5831 5830 5829 5828 5827 5826 5825 5823 5823 5822 5822 5821 5821 5821 5820 5820 5819 5819 5819 5819 5819 5819 5818 5818 5818 5818 5818 5818 5818 5818 5818 5818
5836 5834 5832 5830 5828 5827 5826 5825 5824 5822 5821 5820 5819 5818 5817 5816 5816 5815 5815 5814 5814 5813 5813 5812 5812 5812 5812 5811 5811 5811 5811 5811 5811 5810 5810 5810 5811 5810
5831 5829 5827 5824 5823 5821 5820 5819 5818 5816 5815 5814 5813 5812 5811 5810 5809 5808 5808 5807 5807 5806 5806 5805 5805 5805 5804 5804 5803 5803 5803 5803 5803 5803 5802 5802 5802 5802
5826 5824 5822 5820 5818 5816 5814 5813 5811 5810 5809 5808 5806 5805 5804 5803 5802 5802 5801 5800 5800 5799 5798 5798 5797 5797 5796 5796 5796 5795 5795 5795 5794 5794 5794 5794 5794 5794
5820 5818 5816 5814 5812 5810 5809 5807 5805 5804 5802 5801 5799 5798 5797 5796 5795 5795 5794 5793 5792 5791 5790 5790 5789 5788 5788 5788 5787 5787 5786 5786 5786 5785 5785 5785 5785 5785
5814 5812 5810 5808 5806 5804 5802 5801 5799 5797 5796 5794 5793 5791 5790 5789 5788 5787 5786 5785 5784 5784 5782 5781 5780 5780 5780 5779 5779 5778 5778 5777 5777 5776 5776 5776 5776 5776
5808 5806 5803 5801 5799 5797 5796 5794 5792 5791 5789 5787 5786 5784 5783 5781 5780 5779 5777 5776 5776 5775 5774 5773 5772 5772 5771 5771 5770 5770 5769 5769 5768 5768 5768 5767 5767 5767
5801 5799 5797 5795 5793 5791 5789 5787 5786 5784 5782 5780 5778 5777 5775 5773 5772 5771 5769 5768 5767 5766 5765 5765 5764 5764 5763 5762 5762 5761 5761 5760 5760 5759 5759 5758 5758 5758
5794 5792 5790 5788 5786 5784 5782 5780 5779 5777 5775 5773 5771 5769 5767 5765 5764 5762 5761 5760 5759 5758 5757 5757 5756 5755 5755 5754 5753 5752 5752 5752 5751 5751 5750 5749 5749 5748
5787 5785 5783 5781 5779 5777 5775 5773 5771 5770 5768 5766 5764 5761 5760 5758 5756 5755 5753 5752 5750 5750 5749 5748 5747 5746 5746 5746 5745 5744 5744 5743 5743 5742 5741 5741 5740 5740
5780 5778 5776 5774 5772 5770 5768 5766 5764 5763 5761 5759 5757 5754 5752 5750 5749 5747 5745 5743 5742 5741 5740 5739 5738 5737 5737 5737 5737 5736 5735 5734 5734 5733 5732 5732 5731 5731
5773 5771 5769 5767 5765 5763 5761 5759 5757 5755 5753 5751 5749 5747 5745 5743 5741 5739 5737 5735 5734 5733 5732 5730 5729 5728 5728 5728 5728 5727 5727 5726 5725 5724 5724 5724 5723 5723
5765 5764 5762 5760 5758 5756 5754 5752 5749 5747 5746 5743 5741 5739 5737 5735 5733 5731 5729 5727 5726 5725 5723 5722 5721 5720 5720 5719 5719 5719 5718 5718 5717 5716 5716 5715 5715 5714
5756 5755 5753 5751 5749 5747 5746 5744 5741 5739 5737 5735 5733 5731 5728 5727 5725 5723 5721 5720 5718 5717 5715 5714 5713 5712 5711 5711 5711 5710 5710 5710 5709 5709 5708 5707 5707 5706
5747 5745 5744 5742 5741 5739 5737 5735 5733 5731 5729 5727 5724 5722 5720 5718 5717 5715 5713 5711 5710 5709 5708 5706 5705 5704 5703 5703 5703 5703 5702 5702 5701 5701 5700 5700 5699 5699
5737 5736 5734 5732 5731 5729 5728 5726 5724 5722 5720 5718 5716 5714 5712 5710 5708 5706 5705 5703 5702 5701 5700 5698 5697 5695 5695 5695 5695 5695 5694 5694 5693 5693 5693 5693 5692 5692
5727 5726 5724 5723 5721 5719 5718 5716 5715 5713 5711 5709 5707 5705 5703 5702 5700 5698 5697 5695 5694 5692 5691 5690 5689 5688 5687 5687 5687 5687 5687 5686 5686 5686 5686 5686 5685 5685
5717 5716 5714 5713 5711 5710 5708 5707 5705 5703 5702 5700 5698 5697 5695 5693 5691 5690 5688 5687 5685 5684 5683 5682 5681 5680 5679 5679 5679 5679 5679 5679 5679 5679 5679 5679 5678 5678
5707 5706 5704 5703 5702 5701 5699 5698 5696 5694 5693 5691 5689 5688 5686 5685 5683 5682 5680 5679 5677 5676 5675 5674 5673 5672 5671 5671 5672 5672 5672 5671 5671 5672 5672 5672 5672 5671
5697 5696 5695 5694 5693 5692 5690 5689 5687 5686 5684 5683 5681 5680 5678 5677 5675 5674 5672 5671 5670 5668 5667 5666 5665 5664 5664 5664 5664 5665 5665 5665 5664 5664 5665 5665 5665 5665
5687 5686 5686 5685 5684 5683 5682 5680 5679 5677 5676 5674 5673 5672 5670 5669 5667 5666 5665 5663 5662 5661 5660 5659 5658 5657 5657 5657 5657 5658 5658 5658 5658 5658 5658 5658 5658 5658